Theta_e
315 321 323 323 323 324 322 319 322 322 321 324 328 330 326 321 322 323 322 313 306 313 320 317 315 314 313 313 311 312 312 309 310 311 313 316 317 318 318 318 319 319 319 319 318 319 318 317 316 315 315 315 314 314 314 314 313 313 313 313 313 313 313 313 312 313 313 313 312 314 319 319 318 322 324 325 326 326 324 323 323 323 323 323 321 323
317 322 323 323 320 319 320 319 320 320 321 325 323 322 322 322 324 321 318 314 308 312 321 318 316 316 313 313 311 310 311 310 311 311 312 316 317 318 318 318 319 319 319 319 319 319 318 318 318 317 316 315 315 315 315 315 314 314 313 312 313 313 313 312 312 313 313 314 312 313 316 315 320 325 322 320 323 324 324 323 324 324 325 325 321 321
321 323 323 316 310 312 316 317 320 320 323 328 323 319 322 322 321 318 314 314 311 312 321 320 316 316 314 313 311 310 310 312 314 315 315 316 316 316 317 317 318 318 319 319 318 319 318 319 318 318 317 316 316 315 315 315 314 314 313 313 313 312 313 312 312 312 312 313 312 314 316 316 318 320 320 322 324 325 325 325 326 325 325 324 322 322
322 324 319 308 307 315 317 316 319 319 321 326 322 321 324 321 319 318 316 315 313 312 318 319 316 315 314 314 313 311 310 312 314 315 316 315 315 316 317 317 316 317 318 318 318 318 318 318 318 318 318 318 317 316 315 315 314 314 313 313 313 312 313 312 312 312 313 313 312 313 315 317 319 320 321 325 326 326 326 325 325 323 322 319 318 321
322 318 309 305 310 321 320 316 318 319 320 321 321 322 323 322 320 319 318 317 317 314 313 316 319 321 321 321 321 316 310 311 313 314 315 316 316 317 317 317 317 318 318 318 318 318 318 318 318 318 317 317 317 316 316 316 315 315 314 313 312 312 312 312 311 312 312 312 312 313 315 319 323 324 323 324 324 325 324 325 323 320 320 317 317 320
321 311 308 311 314 319 321 319 320 321 321 321 321 321 320 320 319 318 319 319 322 323 315 314 321 329 331 327 324 323 319 316 314 312 313 316 317 316 317 318 318 318 318 318 318 318 318 318 318 317 317 317 317 317 316 315 315 314 314 313 311 311 311 311 311 311 312 312 311 313 317 319 322 323 322 320 320 321 321 321 320 320 320 316 317 321
317 309 311 319 317 317 319 319 320 318 320 322 319 319 316 315 317 317 318 319 324 326 314 311 320 326 326 321 319 322 322 319 316 313 312 314 316 316 317 318 318 318 318 318 318 318 318 318 319 319 318 318 317 317 316 314 314 313 313 313 312 311 311 311 311 311 312 312 311 314 319 318 317 318 318 318 321 322 321 320 320 321 319 314 316 321
315 313 314 319 321 319 317 320 320 315 321 325 317 317 316 315 318 319 317 318 323 322 315 316 322 322 322 320 319 320 322 322 322 320 316 313 314 316 317 317 317 317 318 318 318 318 319 319 319 319 318 318 317 316 315 314 314 313 313 312 312 311 310 310 311 311 312 311 311 315 318 316 315 316 316 318 321 321 320 321 320 320 317 314 316 319
313 318 317 318 321 320 319 323 319 314 321 322 312 314 317 317 320 321 321 321 320 320 320 319 319 321 325 326 324 320 320 322 323 323 318 313 315 316 317 318 317 318 318 319 319 319 319 319 319 319 318 318 317 316 315 314 313 313 312 311 311 311 310 310 310 311 311 311 311 313 314 313 314 317 318 318 319 319 320 320 319 318 316 314 315 317
310 315 314 315 320 320 320 316 311 315 320 313 307 312 316 317 320 322 324 324 323 323 323 321 319 318 323 329 329 321 320 323 323 322 317 311 315 317 317 319 318 319 319 319 320 319 319 319 318 319 318 318 318 316 315 314 313 312 311 311 311 310 310 309 310 310 310 310 311 311 311 311 314 317 319 320 320 319 319 318 317 317 315 315 315 317
309 309 310 313 316 315 314 310 306 312 313 308 314 321 320 321 322 323 325 322 325 326 321 320 320 317 320 329 328 320 321 327 324 323 321 314 316 318 318 319 319 319 320 319 319 319 318 319 318 318 318 318 317 316 316 315 313 312 311 311 310 310 310 309 309 310 310 310 311 311 310 311 314 318 320 321 321 320 318 317 316 316 315 315 314 316
310 313 313 312 311 310 313 312 308 307 307 312 326 327 321 324 322 322 324 322 326 326 318 316 317 316 319 326 327 320 321 324 320 323 328 320 316 318 318 319 319 319 319 318 319 318 318 318 318 318 318 317 317 316 316 315 314 313 312 311 310 310 310 309 309 309 309 310 310 311 311 311 313 317 319 320 320 319 317 316 316 315 315 315 315 315
315 318 314 310 310 311 318 320 313 311 311 318 327 324 320 324 322 322 325 324 325 320 313 313 316 317 318 319 320 319 319 320 314 314 319 316 315 318 318 318 318 318 318 318 318 318 318 318 318 318 318 317 317 316 316 315 315 313 312 312 311 310 310 309 309 309 309 310 310 310 311 312 314 315 315 315 316 316 316 316 316 315 314 314 315 315
318 318 313 312 313 312 317 320 318 317 317 319 323 322 323 323 321 324 325 320 320 316 310 310 315 319 319 319 319 318 316 316 313 311 312 312 314 317 317 317 318 318 318 318 318 318 318 318 317 317 317 317 317 316 316 315 314 314 313 312 311 310 310 309 309 309 309 309 310 309 310 312 313 312 312 313 315 316 316 317 317 316 314 313 314 314
318 318 316 315 315 314 315 316 319 320 317 318 320 320 322 324 323 324 326 323 321 321 314 309 315 324 324 321 320 314 310 312 312 313 313 312 314 315 315 317 317 318 319 318 318 318 318 318 317 317 317 317 317 316 316 315 314 314 313 313 312 311 310 309 309 308 309 309 309 310 310 310 311 312 311 313 316 317 316 316 315 314 314 312 312 313
315 318 319 313 311 313 314 313 316 318 316 316 318 319 320 322 322 318 317 319 320 321 320 314 318 323 321 320 316 311 311 312 311 311 312 313 315 314 314 317 317 318 319 318 318 318 318 318 318 317 317 317 317 316 316 315 314 314 313 313 311 311 310 309 309 308 309 309 309 309 310 310 311 313 314 314 315 316 315 313 312 313 313 313 311 311
315 318 316 311 311 311 312 312 312 314 316 316 317 320 317 316 323 322 312 310 312 316 320 319 320 320 317 317 317 315 317 317 313 311 311 312 315 314 315 317 318 318 318 318 319 318 318 318 317 317 317 316 316 316 315 315 314 313 313 312 311 310 310 309 309 308 308 309 308 309 310 310 311 314 316 316 316 315 313 312 312 313 314 312 311 310
318 319 314 312 314 311 308 310 310 309 313 318 319 319 314 312 320 325 319 318 318 319 322 322 319 317 318 318 319 319 319 318 318 315 312 311 313 314 315 317 317 318 319 318 318 318 318 318 318 318 317 316 316 315 315 314 314 313 312 312 311 310 310 309 309 308 308 309 308 309 310 310 311 314 316 316 315 313 312 312 312 314 313 311 310 310
316 317 316 311 314 312 308 312 314 310 309 315 318 315 317 320 321 320 320 323 323 322 327 327 319 316 318 319 319 319 323 326 322 318 317 314 311 312 315 317 318 319 318 318 318 318 319 319 318 318 317 317 316 315 315 314 313 313 312 312 311 310 310 309 309 308 308 309 309 309 310 310 311 313 314 314 313 312 311 311 312 312 312 310 309 310
314 315 317 311 310 312 312 314 318 316 311 311 313 312 316 322 322 320 319 320 321 321 325 327 321 319 319 321 321 318 323 331 328 326 327 318 311 313 317 318 319 319 318 318 318 318 319 318 318 318 318 318 317 316 315 314 314 313 312 312 311 310 310 309 309 308 308 309 309 309 310 310 311 312 312 313 312 310 310 311 312 312 311 311 310 309
314 314 316 313 310 313 317 316 316 317 315 314 316 316 316 317 319 320 318 318 322 324 326 325 320 318 319 320 322 319 321 324 327 333 329 316 312 317 319 318 319 318 318 319 319 318 319 318 318 318 318 318 317 317 316 315 314 314 313 313 312 311 310 310 309 308 308 308 309 309 309 310 310 310 311 311 310 309 311 312 312 312 311 310 309 309
315 315 318 317 314 315 318 315 312 315 316 315 316 317 316 316 317 318 317 317 319 322 323 323 320 319 320 321 321 322 323 317 316 321 319 314 315 318 318 319 319 319 318 319 319 318 318 318 318 318 318 318 318 317 316 315 314 314 313 313 312 312 311 310 309 309 308 308 308 309 310 310 310 309 309 310 309 310 311 312 312 311 309 309 309 310
314 317 319 320 319 317 314 309 305 309 315 316 316 316 316 316 316 317 319 318 318 317 316 318 321 320 319 325 324 320 318 312 309 310 311 314 318 318 318 319 319 319 319 318 318 318 318 317 318 318 318 319 318 317 317 316 315 314 313 313 312 312 312 311 310 309 308 308 308 309 310 310 310 309 310 310 310 310 311 311 311 310 308 308 309 310
313 317 317 319 322 321 316 310 305 307 313 316 316 316 316 315 315 318 319 318 318 319 317 318 321 319 318 323 316 308 308 308 309 310 309 313 317 318 318 318 318 319 318 318 318 317 317 317 317 318 318 318 318 317 317 316 315 315 314 313 313 312 311 311 310 309 308 308 308 309 309 310 310 309 309 310 310 309 310 310 309 308 307 308 310 310
314 318 317 317 321 321 318 316 313 311 313 316 318 316 314 315 316 317 317 316 317 321 321 320 320 319 320 321 311 307 311 310 307 310 311 312 316 317 317 318 318 318 317 317 317 317 317 317 317 317 317 318 318 318 317 317 316 315 314 313 313 312 311 310 310 309 308 308 308 308 309 309 309 308 308 309 311 310 310 309 308 307 308 309 310 310
315 318 316 315 317 317 317 318 318 316 314 314 319 319 315 315 317 317 316 316 317 320 320 318 318 316 319 320 317 317 320 316 311 311 311 313 315 316 317 317 317 318 317 317 317 316 317 317 317 317 317 317 318 317 317 317 317 316 315 314 313 312 311 310 309 309 308 308 308 308 309 309 309 307 306 308 310 311 310 310 309 308 309 309 309 310
319 318 314 315 317 316 315 316 318 320 317 316 318 318 315 314 315 316 317 317 318 318 317 317 316 317 317 319 323 324 322 323 319 311 310 314 315 315 318 318 317 317 317 317 317 316 316 317 318 317 317 317 317 317 317 317 317 316 315 314 313 312 311 310 309 308 308 307 307 308 308 308 309 308 306 307 308 309 310 310 309 309 310 310 309 309
320 319 315 316 316 315 316 315 317 320 318 317 317 316 315 314 314 316 317 317 317 317 317 317 316 317 316 315 321 326 325 326 320 310 310 314 315 316 317 317 317 318 318 318 318 318 318 318 318 317 317 317 317 317 316 316 317 316 315 315 314 312 311 310 309 308 308 307 307 307 308 308 308 308 307 306 306 308 309 309 310 310 310 309 308 307
319 318 316 317 316 315 315 315 317 319 317 316 317 316 315 314 313 315 316 316 317 317 317 317 316 317 316 314 316 319 320 320 318 314 314 314 315 316 317 317 318 318 318 318 318 319 318 318 318 318 317 317 317 317 317 317 317 316 315 315 314 313 312 310 309 308 307 307 307 307 307 307 308 307 307 306 306 307 308 309 310 310 309 309 307 305
316 317 317 317 317 316 316 315 317 318 316 316 316 315 315 314 313 315 315 315 316 317 316 317 317 316 315 315 315 314 314 314 314 314 314 314 315 317 317 317 317 318 318 319 319 318 318 318 318 317 316 316 317 317 317 316 316 316 316 315 313 313 312 311 310 308 308 307 307 306 306 307 307 307 307 306 306 306 308 309 309 309 309 308 305 303
313 316 318 317 316 317 316 316 316 316 315 316 315 315 315 314 313 314 315 315 315 316 316 316 317 317 314 314 315 313 313 313 314 313 313 314 317 317 317 317 317 317 318 318 318 318 318 318 318 317 316 316 316 316 316 316 316 316 316 315 314 313 312 311 310 309 308 308 307 306 306 306 306 306 306 306 306 306 308 309 309 309 308 306 304 302
314 315 317 316 316 317 317 317 317 315 314 314 315 316 316 315 314 313 313 315 315 316 316 316 316 316 315 315 314 313 313 312 311 312 313 315 317 317 317 317 317 317 318 318 318 318 317 317 317 316 316 316 316 316 315 316 316 315 315 315 314 313 312 311 310 309 308 307 306 306 305 305 305 305 305 306 305 306 307 308 309 309 308 305 303 301
315 315 315 315 316 318 317 317 316 315 316 316 315 316 316 314 313 313 313 314 314 315 316 316 316 315 317 319 318 318 317 314 311 312 314 315 316 316 317 316 316 317 317 317 317 317 316 316 315 315 315 315 315 315 315 315 315 315 315 314 313 313 312 311 310 309 308 307 306 305 305 304 304 305 305 305 305 306 307 308 308 308 308 305 302 300
314 313 314 314 316 318 317 316 316 317 318 319 316 315 315 314 313 314 314 314 313 314 314 315 315 314 316 318 317 317 317 315 313 314 315 316 316 316 316 316 316 316 316 316 316 315 315 315 314 314 314 314 314 314 314 314 314 314 314 313 313 313 312 311 309 308 307 306 305 304 304 304 303 304 304 305 305 305 306 307 308 308 307 306 302 300
312 312 313 313 315 317 317 316 318 319 319 319 320 318 316 315 314 314 314 314 313 313 314 314 314 314 314 314 313 313 313 314 315 315 316 316 316 315 316 316 316 315 315 315 314 314 314 314 314 314 313 314 314 314 314 314 313 313 313 312 312 312 311 310 309 308 306 305 304 304 303 303 302 303 303 304 305 305 306 307 307 307 307 306 304 301
312 311 313 313 314 316 317 317 319 320 319 320 323 320 317 316 315 314 314 314 313 313 313 313 313 314 313 312 312 312 312 313 313 314 314 315 315 315 315 315 315 314 314 314 314 314 314 314 313 314 313 313 313 313 313 313 312 312 312 312 311 310 310 309 307 306 305 304 304 303 302 302 301 302 302 302 303 305 306 306 307 307 306 305 304 302
313 312 312 314 315 316 317 318 318 319 318 319 320 319 316 316 316 315 316 316 314 313 313 313 313 313 313 312 312 312 312 312 312 312 313 314 314 314 314 314 314 314 314 314 314 314 314 313 313 313 313 313 313 313 313 312 312 311 311 311 310 310 309 307 306 305 304 303 303 302 301 301 300 300 301 301 302 303 305 305 306 306 305 304 303 302
314 313 313 314 315 315 317 318 318 319 319 319 318 317 315 314 314 315 316 317 316 314 312 312 313 313 313 312 311 311 311 313 314 313 313 313 314 314 314 314 313 313 314 314 313 313 313 313 313 313 313 312 312 312 312 311 311 310 310 310 309 308 307 306 305 304 303 302 301 300 300 299 299 299 300 300 301 302 303 304 304 305 304 302 302 301
313 313 313 314 315 315 317 318 318 319 319 319 319 319 316 313 312 313 316 318 317 315 312 311 313 313 312 312 311 310 312 314 315 314 313 314 314 314 314 314 313 313 313 313 313 312 312 312 312 312 312 312 312 311 311 310 309 309 309 308 307 306 305 304 303 302 301 300 299 299 298 298 298 298 298 299 299 300 301 302 303 302 302 300 299 298
313 313 314 314 315 316 316 317 318 318 319 321 322 317 313 311 311 315 319 319 317 315 312 311 312 312 311 310 311 312 313 315 315 314 313 313 314 313 314 314 313 312 312 312 312 312 312 312 311 311 311 310 310 310 309 308 308 307 307 306 305 305 303 302 301 300 299 299 298 298 297 297 297 297 298 298 299 299 300 300 300 299 298 297 296 295
313 313 314 314 315 315 316 317 318 317 319 321 318 311 308 311 315 319 321 319 314 314 314 312 311 312 312 311 310 312 313 313 313 313 312 312 313 313 313 312 312 312 312 312 312 311 311 310 310 309 309 308 308 308 307 307 306 306 305 304 304 303 302 301 300 300 299 298 298 298 298 298 298 298 298 298 298 298 298 297 297 296 295 294 293 293
314 315 315 315 316 315 315 317 317 317 320 319 313 307 309 315 319 319 317 315 314 314 314 313 313 314 314 312 310 312 313 313 312 311 311 312 312 312 312 312 312 312 311 311 310 310 309 309 308 308 307 307 307 306 306 305 305 304 304 303 302 302 301 300 300 299 299 298 298 298 298 298 297 297 297 297 296 296 295 295 294 294 294 294 294 293
315 315 315 315 316 316 316 316 316 318 319 316 312 310 312 316 319 316 314 314 314 315 315 315 315 315 315 313 312 313 313 311 311 310 310 311 311 311 311 312 311 311 310 310 309 309 308 308 307 307 306 306 305 305 304 304 303 303 302 302 301 301 301 300 299 299 298 298 298 297 297 297 296 296 296 295 295 295 295 295 295 296 296 296 297 297
314 315 315 315 315 316 316 317 318 320 318 313 313 314 314 314 315 315 315 314 313 313 315 315 315 316 316 316 315 313 311 310 311 311 311 310 310 311 311 311 310 310 309 308 308 307 307 307 306 306 306 305 305 305 304 303 303 303 303 302 302 302 302 301 300 299 299 298 297 297 297 297 296 297 297 297 298 298 298 298 298 298 298 298 298 298
313 312 312 313 314 316 316 314 315 315 312 311 313 314 313 313 313 314 315 315 314 314 314 315 315 316 316 316 314 312 311 311 311 310 310 310 310 310 310 309 309 308 307 307 307 306 306 305 306 306 306 306 305 305 305 304 304 305 304 304 304 304 303 303 302 301 301 300 299 299 299 299 299 299 299 299 299 298 298 298 298 297 298 298 298 298
308 305 307 310 313 315 314 311 310 309 307 308 310 311 310 311 312 311 312 313 313 314 314 314 315 316 315 314 313 312 312 312 310 310 310 310 310 309 308 308 308 307 307 306 306 306 305 305 305 306 306 306 306 305 305 304 304 304 304 304 303 303 302 302 302 301 301 300 300 300 299 299 299 299 299 298 298 298 298 297 297 297 297 297 297 297
306 304 306 309 310 313 314 313 312 309 306 306 307 307 307 307 308 309 309 310 311 313 314 314 314 314 314 313 312 313 312 311 311 310 310 309 309 308 307 307 307 306 306 306 306 306 305 305 306 306 306 306 306 305 304 304 303 303 302 302 301 301 300 300 300 299 299 299 299 299 298 298 298 298 298 298 298 297 297 297 297 297 297 296 296 295
307 307 308 309 309 309 311 310 307 304 304 305 306 305 305 304 304 305 306 307 309 310 311 312 312 312 313 312 312 312 311 311 310 310 309 308 308 307 307 307 306 306 305 305 305 305 305 305 306 306 306 306 305 304 303 302 302 301 300 300 299 299 299 299 299 299 298 298 298 298 298 298 298 297 297 297 297 296 296 296 295 295 294 294 293 292
308 307 307 308 308 308 308 308 305 304 307 309 307 306 306 305 304 304 304 305 307 308 308 309 310 310 311 311 310 310 310 310 310 309 309 308 307 306 306 306 305 305 305 305 305 305 305 305 305 305 305 304 303 302 302 301 300 299 299 299 299 299 299 298 298 298 298 298 298 298 297 297 297 296 296 296 295 294 294 293 293 292 291 291 291 290
307 307 307 307 307 307 309 309 308 309 311 311 309 309 310 308 307 306 306 305 305 305 306 307 308 308 308 308 308 308 309 309 308 307 307 307 306 306 306 305 305 305 305 305 305 304 304 304 304 304 303 303 302 301 300 300 299 298 298 298 298 298 298 297 297 297 297 297 297 296 296 295 295 294 293 293 292 292 291 291 290 290 290 290 290 289
306 308 308 308 308 309 309 309 308 309 310 310 309 310 311 310 310 309 308 308 307 306 306 307 308 308 307 307 307 307 307 307 307 306 306 306 306 305 305 305 305 305 305 304 304 304 303 303 303 302 302 301 300 299 299 298 298 297 297 296 296 296 296 295 295 295 295 294 294 294 293 292 292 291 291 290 290 290 290 290 290 290 289 289 289 289
Wind_Speed
4 3 2 5 6 7 7 6 6 5 6 7 5 4 3 4 4 4 4 5 0 2 6 6 7 11 12 10 16 27 22 17 23 25 29 33 34 36 35 35 35 35 35 31 28 28 28 27 27 28 29 30 30 30 30 30 30 30 31 31 30 29 29 27 26 24 24 23 23 24 27 28 23 22 25 27 29 28 24 23 26 25 23 24 23 23
5 4 6 8 8 7 6 7 8 6 6 5 5 3 1 3 5 5 2 4 1 2 4 2 5 12 13 11 16 22 17 17 25 25 29 35 37 38 38 39 39 37 37 34 32 31 29 30 29 29 30 30 31 31 31 30 30 31 32 33 32 30 30 29 27 26 25 24 23 23 23 23 23 27 28 27 28 28 25 26 27 25 23 24 24 24
3 4 9 7 9 8 5 6 7 6 6 4 3 2 2 3 4 5 2 4 1 2 4 3 4 12 13 12 16 20 18 23 32 31 33 36 36 38 39 39 39 39 40 38 37 35 32 32 30 30 31 31 32 32 32 31 31 32 33 34 33 32 32 31 29 27 26 24 22 22 22 21 22 26 27 25 28 30 28 27 27 25 25 26 24 24
2 6 7 8 13 10 6 4 7 6 3 2 4 3 3 3 1 3 3 3 1 1 3 2 4 9 12 11 14 17 19 24 32 35 37 39 38 42 43 40 40 41 41 38 36 35 33 32 31 31 31 31 33 33 34 33 33 33 32 34 35 34 33 32 31 29 27 25 23 23 22 21 21 21 22 25 28 30 29 27 27 27 28 27 26 28
5 5 1 7 8 8 7 4 7 5 2 2 4 5 4 4 4 5 3 3 2 2 2 2 5 6 7 7 8 8 8 15 24 26 31 35 35 38 39 37 37 36 35 33 31 29 28 28 27 27 28 30 32 33 34 34 34 33 32 34 35 35 35 33 32 30 28 26 25 25 23 22 24 24 26 28 31 32 31 29 28 29 29 27 25 30
6 3 7 7 4 6 8 4 5 7 3 3 4 8 9 6 5 4 3 5 4 4 3 3 3 5 5 7 8 6 5 11 15 16 24 32 30 31 33 34 34 33 32 30 28 26 25 24 23 24 25 26 28 30 31 32 34 34 34 34 35 36 36 34 32 31 29 27 27 27 26 25 28 31 32 31 32 34 33 30 29 29 29 26 26 29
3 2 5 6 5 6 6 2 6 7 5 1 4 7 8 5 4 3 0 2 1 3 3 3 0 4 7 10 10 6 7 12 13 13 22 30 30 31 33 32 32 30 29 28 26 24 23 22 21 21 21 22 24 25 27 30 33 34 35 35 35 36 36 35 33 32 30 29 29 28 28 29 30 31 31 29 30 30 29 29 29 28 28 26 28 31
3 4 4 6 6 6 5 3 6 8 8 2 4 4 6 6 6 5 4 2 3 2 4 3 2 3 6 9 7 3 6 10 11 13 18 23 26 25 23 21 20 18 17 18 18 17 16 15 14 14 15 17 19 21 24 27 30 32 34 34 35 36 36 35 34 33 31 31 30 30 32 31 30 29 27 26 29 30 29 28 27 26 26 25 29 32
3 6 6 6 5 4 5 4 7 11 6 4 3 6 6 6 5 4 5 2 1 3 4 1 3 2 6 7 5 3 5 8 10 14 15 17 19 16 12 10 7 6 6 6 7 7 7 7 7 8 10 13 16 19 22 24 26 29 32 33 35 36 36 35 34 33 33 32 31 31 33 31 29 30 28 27 29 31 30 28 27 26 24 24 27 31
1 3 7 8 5 5 4 2 5 8 4 4 6 7 6 5 5 5 4 3 2 3 4 5 5 3 6 6 3 1 3 7 10 12 11 15 17 11 6 3 2 3 3 3 3 4 4 5 7 10 11 12 14 17 19 21 24 27 30 32 34 35 35 35 34 34 33 32 32 31 31 29 29 30 31 30 30 30 28 27 27 25 23 24 27 30
1 2 2 4 4 5 6 4 3 3 7 10 7 6 7 6 5 3 2 4 2 4 4 6 8 4 4 6 4 4 5 7 8 9 9 13 14 7 2 2 4 3 3 4 5 6 8 10 12 14 13 12 13 15 18 21 23 26 28 30 32 34 34 34 34 34 34 33 32 31 30 29 29 30 31 33 33 30 27 27 27 24 24 27 27 29
3 1 1 3 5 8 9 6 6 6 7 8 4 5 4 3 4 4 4 4 1 4 3 3 2 2 6 7 4 5 6 7 8 8 8 9 12 8 3 3 4 4 6 8 10 13 15 16 16 14 13 12 13 15 17 20 22 25 27 29 31 32 33 34 34 34 34 33 32 31 30 29 30 31 33 35 35 32 29 28 27 25 25 28 29 31
2 4 2 2 5 8 7 5 5 4 3 4 4 6 4 2 3 3 3 0 3 5 3 3 1 2 8 9 10 11 12 11 11 13 14 14 18 17 12 11 12 13 16 17 19 19 18 17 16 13 12 12 12 13 15 18 21 23 25 27 30 31 32 33 34 34 34 33 32 31 31 30 30 32 34 35 34 32 29 29 29 27 27 30 31 32
3 5 1 3 3 8 9 6 3 1 2 4 5 6 4 2 1 3 3 1 4 4 2 3 2 3 5 6 12 17 17 18 20 23 24 22 25 27 26 24 23 22 22 21 19 17 15 13 12 11 11 11 11 12 13 16 19 22 24 26 28 30 32 33 34 34 34 34 33 31 31 31 32 31 31 31 31 30 29 29 29 27 27 31 31 31
5 6 5 6 4 11 12 7 7 7 5 5 4 5 5 5 5 5 3 3 5 2 2 3 1 4 4 3 8 13 16 19 23 27 27 27 32 32 32 32 27 23 20 17 15 13 11 10 9 9 9 9 10 11 13 15 18 21 23 25 27 29 31 33 34 34 34 34 33 32 31 30 30 28 28 28 29 30 30 29 29 27 28 30 30 30
4 7 6 2 2 13 12 6 8 8 3 3 3 4 4 5 5 2 3 5 2 2 2 2 4 5 5 6 10 11 13 15 18 21 22 27 31 29 30 29 22 18 16 14 12 9 6 5 5 6 6 8 9 10 12 14 16 19 22 24 26 28 30 32 33 34 34 33 32 31 31 30 29 28 28 29 30 31 30 28 28 28 29 29 27 28
2 5 5 4 1 6 5 3 6 5 3 2 3 4 4 4 7 4 2 1 3 2 3 1 5 6 3 7 11 9 9 11 11 14 17 22 23 21 24 22 18 17 15 11 8 4 2 2 3 4 5 7 8 9 11 13 15 17 20 22 25 27 30 31 32 33 33 33 32 32 31 30 29 31 32 32 31 30 29 26 25 27 29 28 27 27
5 3 5 2 1 3 1 3 3 3 4 5 4 6 3 2 4 4 2 2 3 3 4 1 6 6 3 5 6 3 7 11 11 11 15 19 18 20 25 23 19 17 11 6 5 3 1 3 4 4 6 7 8 9 10 12 13 16 18 21 23 25 28 29 31 32 33 33 33 32 32 30 30 31 33 34 32 29 28 26 27 30 31 30 27 26
4 3 5 1 2 3 2 3 2 4 3 4 4 4 4 3 2 2 3 2 1 3 4 4 5 4 5 6 3 3 8 11 11 11 10 14 18 24 28 24 16 10 6 4 3 3 2 4 5 6 7 7 8 9 10 11 13 16 18 20 22 24 26 27 29 31 33 34 33 33 32 30 30 31 33 34 33 31 30 28 29 31 32 30 28 27
3 3 4 2 2 1 2 2 5 1 2 3 2 3 2 2 4 3 3 4 4 4 3 4 4 4 7 7 6 10 11 10 10 8 7 12 19 20 17 12 8 7 5 2 3 2 2 3 5 7 8 9 9 9 10 11 14 15 17 19 21 23 25 27 29 31 33 34 34 33 31 30 30 31 33 34 33 31 31 30 30 31 31 30 30 30
3 3 4 3 3 1 2 5 8 9 6 3 3 4 2 1 2 1 1 2 4 4 3 2 4 7 7 5 8 12 11 9 9 7 7 11 14 13 10 10 7 5 3 4 5 3 3 4 5 7 8 10 10 11 11 11 13 15 16 19 20 23 25 28 29 31 33 34 34 33 32 31 31 31 32 33 32 31 32 33 32 32 33 32 30 31
3 3 4 2 1 3 4 4 4 8 9 8 8 8 9 7 4 3 4 2 3 3 4 4 3 9 7 5 8 10 7 8 9 9 9 9 9 10 13 13 9 6 4 4 4 5 6 8 9 11 12 13 13 12 12 12 13 14 15 17 19 22 24 27 29 30 32 33 33 33 32 31 31 30 31 31 32 32 33 34 34 35 35 31 30 32
4 3 3 3 5 6 4 2 1 3 4 4 5 6 7 7 7 6 6 4 2 1 2 3 1 9 8 6 7 8 6 7 9 10 12 12 12 13 14 14 10 8 7 4 2 2 4 7 11 15 16 17 16 14 13 13 13 13 15 16 18 21 23 26 28 29 31 32 33 33 33 33 32 31 31 31 32 33 33 35 35 36 35 30 30 33
4 3 3 2 3 3 4 3 2 1 2 3 6 5 4 5 6 5 3 4 4 3 3 2 3 10 8 3 4 7 6 9 13 13 14 18 17 16 18 18 12 9 8 6 3 2 1 6 11 15 18 19 20 18 15 14 14 14 15 16 17 19 21 24 27 29 31 32 33 33 34 34 35 34 33 33 33 32 33 34 33 34 33 29 30 33
7 3 5 3 2 4 4 3 2 2 2 4 5 4 5 6 6 4 1 2 2 5 8 5 6 10 7 2 1 5 6 9 15 16 16 19 20 18 18 19 17 13 9 5 4 5 3 8 13 17 19 22 24 21 17 15 15 15 15 16 17 19 21 24 26 29 31 32 34 34 35 36 36 36 35 35 34 33 33 31 29 28 29 29 31 34
10 4 7 8 7 8 6 6 6 4 3 2 3 6 9 10 11 6 3 4 4 8 8 6 8 12 9 5 4 6 4 6 14 17 16 19 23 21 18 18 19 16 11 9 10 8 6 11 17 19 22 24 25 23 19 17 17 17 16 17 17 19 21 23 26 28 30 33 34 36 37 37 38 37 35 35 35 34 33 32 29 27 28 30 32 35
4 3 9 12 12 13 12 12 6 6 6 7 10 13 12 13 14 10 5 6 9 10 8 9 12 16 16 9 5 7 7 6 11 13 15 21 24 23 23 23 21 16 15 16 15 13 13 16 20 23 25 26 26 24 20 18 18 18 18 18 18 19 21 23 26 28 30 33 35 36 38 38 38 36 35 34 35 34 33 32 31 30 29 30 32 36
2 3 10 14 16 16 15 15 8 9 11 15 17 16 14 13 14 13 11 13 13 10 11 16 16 16 21 17 10 9 8 7 8 12 18 22 22 23 24 23 21 20 21 20 19 20 23 24 25 26 27 26 27 25 22 20 20 19 19 19 19 20 21 23 25 27 29 32 35 37 38 38 38 36 34 33 33 33 33 32 32 31 31 31 33 37
2 5 9 11 15 17 17 14 8 9 11 12 16 18 17 15 16 17 18 20 18 13 14 19 17 17 22 21 15 12 9 10 13 17 21 20 18 20 23 24 25 26 25 23 23 25 28 30 31 30 28 26 27 26 24 23 22 21 20 20 20 20 21 23 25 26 29 32 33 36 38 38 38 36 33 33 33 33 33 33 32 32 32 31 33 36
2 6 9 9 12 15 17 15 8 10 9 8 11 14 14 17 19 21 22 25 25 20 17 18 19 22 22 17 12 13 18 22 21 17 16 15 16 19 23 27 28 28 27 27 28 30 31 34 35 33 29 26 26 26 25 24 23 21 20 20 20 20 21 22 24 26 28 30 31 34 36 37 38 36 34 32 33 34 33 33 33 32 31 31 33 35
2 5 6 6 7 10 14 16 11 8 8 8 6 6 9 14 18 22 23 22 20 18 18 18 21 22 16 9 10 15 21 23 18 16 18 18 20 24 27 30 30 29 30 31 33 35 36 37 36 34 30 27 26 26 25 24 23 21 21 21 20 20 20 21 23 24 26 28 29 32 35 36 37 37 35 32 32 33 33 33 33 32 30 30 32 34
2 3 2 2 6 9 13 17 12 3 3 7 6 6 12 15 16 18 16 14 14 16 18 17 18 19 9 5 9 14 16 16 16 20 25 27 29 32 33 34 35 34 35 35 36 39 39 37 33 31 30 28 26 25 24 23 22 22 21 21 20 19 19 20 21 23 24 26 28 31 34 35 37 37 36 33 31 32 33 32 32 31 30 30 31 34
4 3 2 3 5 9 15 15 6 2 2 7 10 15 20 19 15 11 9 14 17 16 14 13 16 19 10 6 8 11 10 12 17 23 27 31 35 38 39 39 38 37 37 37 38 38 36 33 30 29 29 28 26 25 24 24 24 23 22 21 19 20 20 19 20 21 23 25 27 30 32 34 36 36 36 35 32 31 31 32 32 31 29 28 30 33
6 6 5 4 4 10 13 7 1 3 10 12 14 18 20 17 14 12 14 21 20 15 12 12 14 18 13 8 11 12 12 16 23 29 34 36 38 38 38 38 36 35 36 35 33 32 30 30 30 29 28 28 28 28 27 27 27 25 23 21 21 20 20 19 20 21 22 24 25 28 30 33 35 36 36 36 33 31 30 31 31 30 28 27 29 32
7 8 5 3 3 6 5 2 3 10 12 10 10 12 12 12 16 20 22 24 21 17 15 16 19 21 19 16 16 15 17 24 30 33 36 36 36 35 35 36 35 34 33 30 28 28 29 29 28 27 26 26 26 27 27 27 27 25 24 22 21 20 19 19 19 20 21 22 23 25 29 32 34 35 35 35 34 31 31 31 31 30 29 28 28 30
8 7 4 3 4 3 3 5 8 8 5 5 7 7 7 10 13 15 17 21 21 18 16 19 24 27 25 22 21 20 19 22 26 31 35 34 34 35 36 36 35 33 31 28 27 28 26 23 23 22 21 20 20 21 22 23 24 24 23 21 20 19 18 18 19 19 20 21 21 23 26 29 32 33 33 33 33 32 32 32 31 30 30 29 29 29
10 7 4 4 5 5 6 8 8 7 6 8 11 9 8 11 11 10 11 18 18 16 18 20 24 28 25 22 24 23 17 12 16 27 34 33 35 39 39 37 35 31 29 26 24 22 19 17 17 17 16 17 17 17 17 18 19 20 19 18 17 17 17 17 17 17 17 18 19 20 23 26 29 31 31 31 31 31 31 30 30 30 30 30 29 29
12 9 7 6 5 6 7 8 7 6 7 13 18 11 8 11 12 10 8 13 14 17 23 23 24 26 20 16 20 19 12 6 10 20 30 32 34 36 33 30 28 25 23 20 17 15 14 14 15 15 16 16 15 15 15 16 16 17 16 15 15 14 14 14 14 14 14 14 15 16 19 22 24 26 27 27 27 27 27 28 29 29 29 28 27 26
16 12 10 8 5 5 7 7 7 7 7 13 17 9 9 17 15 10 5 12 17 20 24 23 21 21 16 16 21 15 7 6 11 18 25 25 22 21 21 21 20 17 16 15 14 14 15 15 15 16 16 16 15 15 15 15 14 14 13 12 12 12 11 11 10 10 10 10 11 13 15 17 19 21 22 22 22 23 24 25 25 24 24 23 22 22
14 10 10 9 7 8 9 8 7 5 6 11 11 5 12 23 21 11 5 13 14 14 21 23 19 20 23 27 21 10 8 13 17 19 19 16 14 15 16 16 16 14 13 13 13 14 15 14 14 14 13 13 13 13 13 12 11 11 10 10 10 9 9 9 8 8 8 8 8 9 10 11 12 14 15 15 16 18 19 19 19 18 17 17 17 18
9 8 8 9 11 12 12 10 7 4 6 9 7 8 19 22 16 8 12 11 4 3 17 27 28 29 35 32 19 13 21 32 31 22 15 13 14 14 14 14 14 13 12 13 12 12 12 11 11 10 9 8 8 8 8 8 8 8 8 8 9 9 9 9 9 10 10 10 10 9 9 9 9 9 10 11 12 13 13 13 13 12 12 12 12 12
6 6 7 9 12 11 11 11 9 5 7 9 8 14 20 15 6 10 9 4 2 5 13 25 32 36 39 35 28 29 37 40 34 24 17 15 15 14 14 15 14 14 13 12 11 10 9 9 8 7 6 6 6 6 7 7 8 8 9 10 10 11 12 12 13 14 14 14 14 13 13 12 12 11 11 11 11 11 11 11 11 11 11 10 10 10
7 5 6 8 9 8 8 9 9 7 10 16 13 8 9 9 12 14 9 4 7 11 14 21 28 32 35 35 36 39 38 32 27 24 21 20 18 16 16 15 14 14 13 11 10 9 9 9 8 8 8 8 9 10 10 11 12 13 14 15 16 16 17 17 17 17 17 17 17 17 17 16 15 15 14 13 12 12 11 11 11 10 10 9 9 9
8 7 6 6 7 7 8 9 9 6 8 21 19 8 14 24 21 13 11 11 12 14 16 21 25 26 30 34 36 35 32 27 24 23 22 20 18 16 15 14 14 14 12 11 11 11 11 11 12 13 13 14 15 16 16 16 17 18 19 20 20 21 20 21 21 20 20 20 20 20 19 19 18 17 16 15 14 12 12 11 10 9 9 9 8 9
5 5 4 4 6 7 6 6 5 4 5 22 25 17 22 34 30 16 13 17 18 17 18 21 23 24 28 31 31 28 26 25 23 21 18 16 15 14 14 14 14 14 13 13 14 14 14 15 16 17 19 19 20 20 20 19 18 19 20 21 21 21 22 22 22 22 22 22 22 22 21 21 20 19 18 17 16 14 14 13 13 12 11 11 11 12
3 7 8 5 3 5 7 7 7 6 3 14 23 19 14 22 27 23 18 17 17 18 19 20 22 25 28 29 26 23 22 22 21 19 16 15 14 15 15 16 16 16 16 16 17 18 19 20 20 20 21 21 21 20 20 20 18 18 19 21 21 22 22 23 23 24 24 24 23 23 22 22 21 20 19 19 18 16 15 14 13 13 13 12 13 13
2 4 5 3 5 5 6 7 7 7 7 9 15 17 13 13 18 21 21 18 16 18 20 20 20 21 24 24 22 20 19 18 18 18 17 16 16 17 17 17 17 18 19 19 20 21 23 23 22 21 20 19 20 19 19 19 20 19 19 21 22 23 23 23 23 23 23 23 23 22 22 21 21 20 20 19 18 17 16 15 14 13 13 12 12 12
3 3 2 3 4 3 5 8 10 10 9 8 10 14 14 12 11 14 18 18 16 14 16 18 16 15 17 18 16 16 15 15 15 17 18 18 19 19 19 19 20 21 22 23 23 23 24 23 21 20 18 17 19 19 19 20 21 21 21 21 22 22 22 22 22 21 21 21 21 20 20 19 18 18 17 17 16 15 14 13 13 12 12 11 11 11
2 1 2 3 4 6 8 11 11 11 9 6 7 10 13 13 13 12 12 14 14 13 14 15 14 13 13 13 13 14 14 14 15 16 17 19 20 20 20 21 23 24 25 25 25 24 24 22 20 18 18 18 19 19 19 20 21 21 20 20 20 20 20 20 20 19 19 19 18 18 18 17 16 15 14 14 15 15 14 14 13 12 12 11 11 10
3 4 4 3 4 7 7 6 5 5 6 7 8 9 11 13 14 14 13 13 12 11 10 11 11 10 10 11 11 12 13 14 15 15 17 19 20 20 22 24 25 26 26 25 25 25 24 21 19 18 17 18 19 19 19 20 20 19 19 18 18 18 17 18 18 18 17 17 17 16 16 16 16 16 16 15 16 16 16 15 14 13 11 10 9 8
8 7 6 5 5 8 11 13 12 8 9 14 15 13 12 12 14 14 14 14 13 12 11 11 11 10 10 11 11 11 10 11 13 14 16 18 19 21 23 25 26 26 25 25 26 25 24 21 19 17 17 18 19 19 19 19 19 18 18 18 18 17 16 16 17 17 17 17 17 17 17 17 18 18 18 17 16 15 14 13 12 11 10 9 8 7
Wind_Direction
93 103 160 202 207 200 199 166 144 149 121 116 121 113 156 199 267 257 255 296 137 190 263 243 252 269 267 268 271 275 282 280 273 272 272 272 271 270 270 270 269 268 268 269 269 264 260 258 253 250 249 250 251 250 249 249 248 245 243 242 241 241 241 239 238 237 236 234 229 221 219 226 225 213 211 213 216 222 230 227 226 233 234 234 233 221
88 148 225 222 199 182 171 138 118 106 86 91 118 125 237 217 253 254 243 310 357 183 270 309 290 275 267 267 267 270 276 272 266 264 266 268 269 269 269 269 269 269 270 271 271 267 264 261 258 255 251 249 250 249 249 248 247 245 242 242 242 242 242 242 240 238 238 236 234 229 229 227 214 212 218 218 218 223 226 223 224 225 224 234 242 231
60 217 244 202 148 115 96 114 112 103 89 80 113 125 272 247 267 284 312 329 20 180 273 352 310 276 274 271 265 260 252 258 263 261 263 265 267 268 268 268 270 271 272 272 271 270 266 264 262 260 257 254 252 250 250 250 247 245 242 241 242 242 242 242 239 237 238 236 231 227 231 229 216 217 222 220 219 219 216 215 220 226 233 243 240 227
143 251 254 171 144 111 78 95 101 98 95 99 133 141 253 254 270 284 297 318 355 173 278 327 301 278 276 272 267 261 247 254 262 261 262 263 262 265 266 268 269 271 273 275 274 272 269 266 263 261 259 257 255 251 249 248 247 245 243 241 241 241 241 241 239 236 234 233 229 223 224 226 224 222 217 212 212 213 214 219 227 235 244 248 233 221
216 251 177 134 137 116 108 120 120 133 215 257 174 172 222 229 210 237 283 321 320 2 359 334 305 285 283 281 277 279 260 255 261 261 262 262 261 264 266 267 268 270 273 276 277 277 276 273 270 265 261 259 256 254 252 250 249 247 245 242 241 240 241 240 238 236 233 231 228 224 221 217 217 216 212 212 214 220 226 231 238 241 246 248 227 217
247 215 132 113 90 106 118 154 176 162 183 282 229 203 214 212 204 237 327 5 359 341 343 9 313 283 304 290 266 282 300 274 269 266 265 267 266 265 266 268 269 271 273 275 277 278 278 277 276 272 266 260 257 255 254 253 250 248 245 243 241 240 241 240 237 236 234 232 230 226 222 217 215 214 218 223 225 227 231 236 240 239 245 247 220 210
233 152 122 121 122 119 118 186 220 169 134 291 249 209 207 181 166 209 317 18 310 270 296 42 59 276 305 288 268 276 288 280 283 278 269 270 270 268 268 271 273 274 274 275 276 275 275 275 274 273 270 266 262 258 254 252 249 247 244 243 242 241 240 240 238 236 235 233 231 226 223 225 225 225 229 231 226 225 229 234 237 238 249 248 216 208
167 134 88 107 111 114 136 211 225 158 130 234 248 156 156 157 177 191 155 187 239 270 316 37 121 257 286 277 278 311 292 285 289 283 275 273 275 276 278 281 280 278 275 272 270 269 269 268 269 271 270 267 263 257 252 249 249 248 246 243 243 241 239 239 237 236 235 233 229 222 222 226 229 232 235 233 227 228 231 233 237 240 250 246 215 207
158 167 180 149 113 135 181 224 196 152 132 245 209 118 132 148 155 139 126 169 322 354 305 271 133 253 266 268 300 341 293 284 280 274 274 280 285 290 294 292 285 268 257 256 252 245 243 247 262 275 273 264 255 249 247 247 248 248 247 243 242 241 239 237 236 235 233 232 228 224 224 226 226 227 230 233 233 231 230 233 239 240 243 236 211 201
87 174 190 154 136 191 203 287 188 161 145 176 141 97 83 81 82 86 103 117 52 333 255 196 169 228 268 270 295 332 259 257 264 266 270 282 288 296 301 274 208 203 217 230 226 215 228 257 282 287 282 271 257 247 242 241 242 243 244 243 241 241 240 237 236 235 234 231 228 225 227 227 225 226 227 230 228 226 229 234 238 238 232 224 208 200
338 91 174 160 164 172 134 64 41 108 132 139 121 78 64 41 44 54 49 80 62 292 258 201 188 194 271 271 233 212 222 213 232 260 276 280 277 276 300 214 188 198 223 239 252 259 270 283 294 294 288 278 263 251 242 237 236 237 239 240 241 241 241 238 236 235 234 232 230 228 227 226 224 225 226 225 223 225 232 235 234 232 223 217 209 203
341 95 225 189 160 129 105 67 37 67 118 120 92 87 84 357 15 26 353 51 112 253 264 246 214 176 244 259 245 241 254 230 221 242 261 270 259 237 206 225 236 249 257 266 276 282 287 293 296 294 285 274 261 252 245 240 236 235 236 237 238 239 239 238 236 234 234 232 230 229 227 226 224 222 223 225 227 230 235 235 233 229 220 214 209 205
279 229 253 144 165 155 122 76 45 26 43 82 95 109 98 340 0 347 304 98 227 247 254 246 223 219 242 261 271 263 260 249 234 233 238 249 256 255 256 259 265 270 274 282 287 289 291 293 293 287 278 270 261 253 248 245 241 237 237 236 236 237 237 237 235 233 233 231 230 229 227 227 226 225 226 227 229 232 235 232 231 230 223 215 209 208
270 295 269 133 205 193 165 139 139 205 191 147 145 140 135 136 157 254 261 278 265 268 290 251 219 253 266 273 257 250 251 247 243 246 248 252 260 266 271 272 275 277 281 287 291 293 294 291 287 281 275 269 263 255 248 246 244 241 239 237 236 236 235 235 234 233 232 232 231 230 227 225 225 227 227 225 225 229 230 228 232 237 231 220 214 210
220 282 210 174 190 185 184 184 161 144 159 185 160 137 157 164 173 214 213 215 250 279 314 278 224 202 217 260 251 249 263 262 253 253 256 259 262 267 271 273 273 275 281 289 294 299 298 291 283 276 275 271 264 258 250 246 244 243 242 240 237 236 235 233 233 232 232 231 230 229 227 226 225 227 226 223 223 226 230 234 240 241 232 224 220 214
205 263 241 258 165 168 179 185 138 117 140 211 118 119 193 192 153 157 191 178 183 331 312 240 233 219 212 275 275 261 271 272 261 258 258 258 259 263 267 267 266 272 283 295 301 305 298 288 285 281 279 273 267 262 257 252 249 247 245 243 241 238 237 235 234 232 231 230 229 228 228 227 224 224 226 223 221 226 234 239 239 233 228 225 224 219
172 275 292 349 43 169 181 173 144 140 173 165 140 178 211 165 119 111 219 115 80 265 274 205 248 279 311 284 271 258 265 273 268 264 257 254 256 261 262 259 263 277 291 301 298 285 276 307 317 303 292 280 273 268 265 261 257 255 251 249 246 242 239 236 234 233 232 231 230 228 228 228 224 222 223 222 223 230 235 234 228 223 224 225 225 225
164 257 300 39 151 252 309 105 90 52 120 134 185 201 170 109 100 111 187 0 45 242 273 253 241 275 306 277 291 298 258 260 260 256 256 260 261 258 257 260 268 277 283 286 264 210 144 17 357 333 315 296 283 273 269 265 260 258 255 252 250 247 243 240 236 234 233 233 233 231 229 228 224 221 222 225 231 236 235 229 221 218 222 227 228 229
165 232 298 41 183 271 0 116 112 12 71 132 183 175 120 145 183 114 161 191 211 233 270 283 267 255 223 234 277 245 231 240 247 249 258 264 256 252 257 262 264 261 252 239 203 162 93 35 15 360 346 325 304 285 273 266 260 255 253 252 251 250 248 245 241 236 234 233 233 232 231 229 225 222 224 229 234 235 232 227 222 221 227 234 235 232
148 203 272 320 257 280 37 167 193 200 36 56 98 114 91 166 177 169 161 167 191 205 231 290 310 264 225 207 199 219 225 223 230 238 243 248 248 249 251 248 225 210 212 172 118 121 73 32 11 0 348 337 325 303 282 269 264 260 256 253 251 249 248 245 241 238 235 234 232 231 230 228 226 225 226 230 234 233 229 226 225 227 233 240 241 232
98 199 240 313 326 203 174 215 197 176 160 143 158 170 192 184 122 179 212 134 151 167 182 246 276 266 249 193 188 216 226 217 212 219 234 245 252 243 203 174 175 188 166 89 76 52 19 358 350 351 338 329 321 309 295 278 269 265 261 258 254 250 249 246 243 240 237 235 233 231 230 228 227 227 227 230 231 229 226 224 225 230 238 242 239 227
170 193 188 159 241 197 213 250 207 185 182 178 186 192 194 184 153 190 234 210 124 149 176 177 241 270 258 183 196 217 217 217 217 225 241 242 236 220 184 163 159 153 123 82 64 31 4 345 335 331 325 319 312 305 298 285 275 268 264 262 259 254 251 248 245 242 238 236 233 232 231 229 229 228 228 229 229 226 226 225 227 236 241 238 229 222
159 115 141 189 217 212 235 300 279 218 200 182 207 206 194 192 181 185 211 211 155 153 171 126 208 267 252 178 200 222 209 228 239 244 256 244 213 194 183 179 168 149 146 136 97 36 346 342 333 321 313 311 308 303 298 291 283 275 267 264 261 259 256 252 248 244 241 238 235 233 231 230 230 230 229 230 229 227 227 228 233 242 242 232 224 220
132 112 176 241 294 303 321 339 4 34 126 210 243 210 165 202 200 178 180 177 161 176 177 132 227 260 262 195 214 241 243 254 254 247 249 245 225 196 187 189 183 172 176 173 165 208 302 354 339 318 307 304 302 300 299 297 291 281 272 266 264 262 259 255 251 246 242 238 236 233 231 231 232 231 230 229 230 230 230 234 241 243 237 230 225 219
169 183 182 183 296 312 325 322 300 283 203 223 245 197 168 188 167 126 104 138 175 213 196 188 231 251 271 344 286 253 258 266 259 248 243 243 234 218 203 194 191 198 205 204 234 256 308 344 332 318 307 301 296 294 295 300 298 288 277 271 268 264 260 256 252 248 244 240 237 234 233 233 234 233 231 228 229 232 233 238 244 239 232 231 227 219
175 194 179 180 217 227 226 226 218 213 196 210 239 199 193 188 169 163 195 175 218 233 206 201 240 250 269 330 323 272 264 269 260 251 243 241 236 227 217 210 206 210 228 252 267 275 300 319 319 317 311 303 295 290 291 298 299 292 283 276 270 265 260 256 253 249 246 242 239 237 236 236 235 235 233 229 228 231 233 237 242 239 235 235 228 220
159 225 197 196 212 214 222 229 198 130 146 196 217 206 198 197 186 183 196 195 216 234 232 228 236 250 260 268 275 264 245 239 257 253 239 238 237 225 215 216 219 226 245 263 276 285 292 302 311 314 311 305 298 290 288 293 296 292 286 279 273 268 262 257 253 250 247 244 241 240 240 239 238 239 237 231 228 230 233 236 239 241 240 237 230 222
100 249 215 217 223 221 231 232 192 151 179 201 210 207 200 196 187 188 207 215 214 224 242 238 229 242 256 252 239 243 240 232 249 254 243 236 229 222 221 222 225 233 246 261 276 284 288 292 300 308 309 304 299 292 288 291 292 290 286 281 275 271 267 260 255 251 248 245 242 241 241 241 241 242 240 234 230 229 232 234 238 240 240 236 231 223
163 230 220 227 234 236 244 241 192 175 202 204 205 208 201 189 186 195 211 220 218 215 233 241 232 232 246 249 239 227 220 225 232 239 244 241 229 226 231 232 232 236 246 258 268 275 281 285 291 301 303 299 296 293 290 291 291 288 287 283 277 274 272 264 258 254 250 247 245 243 242 242 243 243 240 235 230 229 230 233 236 239 239 236 230 224
166 227 229 227 237 245 250 249 214 194 217 222 213 212 201 190 191 200 211 220 223 223 232 244 247 245 244 244 240 228 223 229 236 238 241 243 238 235 236 237 239 242 247 256 264 270 275 280 287 295 296 293 291 290 290 292 290 288 288 284 279 277 275 267 261 256 252 250 248 245 243 242 242 243 241 235 230 229 229 232 235 238 238 236 231 225
180 232 246 235 246 256 255 255 242 206 219 242 241 227 211 201 202 209 216 221 224 230 237 242 251 258 252 226 222 229 225 227 237 243 243 246 249 250 248 247 247 249 252 258 266 271 275 278 284 291 292 290 288 286 287 289 287 286 285 282 280 279 276 270 264 259 256 254 250 245 243 242 241 242 241 236 231 228 229 231 235 237 238 236 232 227
188 240 299 255 248 251 249 254 255 197 201 249 255 233 215 210 212 215 218 221 219 224 233 237 246 256 249 162 200 220 215 217 227 234 240 247 250 251 252 252 252 254 257 262 267 272 276 277 280 285 287 287 285 282 281 281 279 278 278 278 278 278 275 269 263 260 257 254 250 246 244 242 240 240 240 237 232 229 228 230 234 237 237 236 232 227
171 190 223 209 226 246 246 250 255 103 205 248 240 228 220 216 218 221 229 233 224 216 220 225 236 245 237 159 198 216 200 207 221 224 231 241 246 248 251 252 254 257 259 264 267 270 273 277 279 281 281 282 280 277 275 273 271 272 272 271 271 271 270 265 259 257 255 252 249 246 244 242 240 239 238 236 234 231 229 231 235 237 236 235 232 227
183 192 212 194 207 247 246 240 145 224 239 241 234 232 229 221 214 216 227 232 226 217 223 234 245 254 247 210 215 221 206 215 227 230 234 240 244 249 253 256 258 260 262 265 267 269 274 279 281 279 276 275 273 272 271 268 267 268 267 265 265 265 264 259 253 252 252 250 248 246 243 242 240 238 236 236 235 233 232 232 235 238 237 235 232 228
193 200 203 185 208 243 236 167 205 233 238 245 246 241 236 221 214 219 229 236 231 220 225 242 252 255 248 237 236 232 223 228 234 236 237 240 244 250 255 258 261 263 265 266 269 274 278 278 277 275 273 272 270 269 269 267 265 265 264 263 264 262 258 252 249 250 250 249 248 245 243 241 239 237 236 235 234 234 233 233 235 237 237 235 233 231
190 197 196 198 207 211 188 195 223 241 268 291 273 246 219 212 212 217 234 244 237 221 217 230 240 247 248 246 245 242 237 241 247 246 241 240 244 250 253 257 262 265 268 271 274 276 276 272 270 271 271 271 270 268 268 266 263 263 264 264 262 257 251 248 247 247 247 247 246 243 241 240 238 237 236 234 233 233 234 235 235 237 238 237 236 235
192 194 196 210 204 202 220 224 236 275 305 282 259 233 198 203 202 192 227 249 241 218 214 224 236 244 247 246 245 245 244 253 265 259 250 245 248 252 255 260 265 268 269 271 270 267 265 264 266 269 270 270 270 268 265 262 260 260 261 260 256 252 247 245 244 244 245 245 244 242 241 240 238 237 236 235 233 233 235 238 238 238 239 239 239 238
199 197 195 211 206 200 224 234 238 251 252 247 248 235 178 188 191 170 204 252 252 222 211 217 233 240 242 245 243 237 231 245 269 263 256 254 254 255 258 261 262 262 261 260 259 257 257 260 263 266 269 270 269 266 261 258 256 255 254 252 248 244 242 240 240 240 240 239 239 239 239 239 238 238 237 236 235 234 235 238 240 241 241 242 244 244
207 204 204 217 215 198 217 230 227 226 232 243 250 243 163 169 163 132 169 245 257 238 214 211 230 239 236 235 229 211 185 225 254 258 256 255 253 249 251 254 252 248 248 248 251 256 257 259 261 263 266 265 263 260 257 254 252 249 246 243 237 233 231 228 224 224 223 224 228 231 235 236 236 236 236 236 235 233 234 237 241 244 244 244 245 245
206 206 212 218 219 215 221 230 231 229 238 243 250 232 164 158 143 122 201 239 255 240 209 203 218 230 230 229 221 186 173 221 243 256 251 240 237 236 238 243 241 236 238 245 253 258 258 260 261 261 262 261 257 254 250 247 244 238 231 225 219 213 208 200 194 192 189 191 198 207 215 221 224 226 227 228 229 230 232 235 237 240 241 240 240 240
201 207 214 215 222 223 222 231 243 235 231 243 237 173 155 145 137 174 223 235 260 187 191 197 205 218 227 226 211 197 221 231 238 247 240 222 223 225 221 225 230 234 243 248 250 252 253 255 257 256 256 253 245 239 235 228 221 213 202 195 188 179 172 167 163 159 157 155 157 161 166 174 181 189 196 202 210 216 220 223 224 226 227 227 227 229
192 203 209 211 222 225 221 231 245 242 219 216 193 164 157 151 186 221 214 216 192 163 185 196 201 214 225 224 215 219 230 235 235 236 234 227 225 223 220 226 233 241 247 244 238 237 237 237 237 232 226 218 203 194 191 183 179 174 165 157 152 148 145 143 141 141 140 140 141 142 144 148 153 159 167 174 182 188 191 193 195 197 200 203 208 213
185 193 210 208 210 218 226 227 231 242 214 187 165 146 165 200 230 219 194 189 203 197 201 202 204 214 222 223 224 227 231 233 231 229 230 231 230 229 230 232 233 233 231 225 222 220 212 207 206 198 188 177 163 154 149 146 146 143 138 136 133 133 133 133 133 135 135 135 136 137 138 141 144 148 152 157 162 168 172 176 179 184 189 194 200 207
186 190 208 206 195 205 223 218 215 241 201 177 172 181 206 213 224 220 200 211 219 214 212 208 209 216 221 224 227 226 224 225 226 225 226 226 226 228 228 225 220 215 210 205 202 195 188 187 185 175 164 153 145 138 134 134 136 134 132 131 131 130 131 131 132 133 134 135 136 136 137 139 140 142 144 145 148 151 153 156 157 160 166 172 183 196
210 218 245 233 209 212 227 231 246 300 178 185 200 220 216 214 224 232 223 224 228 224 218 213 212 215 219 223 224 221 218 219 220 218 217 216 219 219 214 210 206 201 196 193 188 177 172 173 170 161 153 145 140 136 134 134 136 135 133 133 132 133 133 133 134 135 135 135 136 136 137 138 139 140 139 140 141 144 146 150 154 161 170 180 192 204
292 343 347 328 279 263 256 253 268 301 279 214 222 237 238 227 229 233 236 238 238 236 233 225 220 219 218 219 218 215 215 215 211 210 210 211 211 207 203 201 197 191 187 183 175 168 164 163 161 156 151 146 143 141 139 139 140 140 138 137 136 137 137 138 138 138 138 139 139 139 140 141 143 145 147 150 153 158 163 169 175 182 191 199 206 214
298 33 21 312 298 293 259 249 249 254 272 267 250 250 260 256 241 234 235 240 246 247 241 229 222 222 220 217 215 214 212 208 205 206 206 205 202 197 195 193 188 183 179 174 169 164 161 161 160 157 154 152 150 149 148 147 147 146 145 142 141 141 142 143 143 142 143 144 144 146 148 150 152 155 159 163 168 173 180 185 189 194 199 204 207 211
235 105 99 255 274 286 278 288 290 276 269 279 276 267 268 278 274 252 240 238 242 241 230 220 218 220 220 217 214 211 207 204 206 207 202 196 193 192 190 187 183 177 172 168 167 163 161 164 164 161 161 161 158 156 157 155 153 152 150 148 147 147 148 149 149 149 150 151 154 156 158 161 164 167 169 172 176 180 184 186 187 188 191 191 192 193
170 225 241 240 259 276 282 283 288 294 293 280 269 267 267 276 290 287 264 250 243 233 221 214 210 211 215 217 216 213 212 212 211 206 199 193 189 188 185 181 177 174 171 169 167 164 164 168 169 167 168 168 164 163 163 160 158 156 155 154 154 155 157 157 158 159 160 161 163 165 165 167 169 170 171 173 173 173 172 172 170 170 171 173 174 177
148 241 223 202 257 269 270 258 246 270 288 270 258 266 270 272 277 277 269 258 247 233 220 210 206 205 205 207 212 217 220 215 204 195 193 192 188 185 182 178 175 174 172 170 168 167 168 171 172 172 174 171 167 166 165 163 162 160 160 161 161 161 164 164 163 163 164 164 165 166 166 165 164 164 164 164 164 164 162 160 159 161 165 172 177 184
200 222 199 187 233 247 254 259 249 233 255 271 272 271 270 264 258 259 261 259 253 247 241 241 247 240 223 215 217 216 213 207 196 187 187 188 186 183 181 179 178 177 175 173 172 171 171 173 176 178 177 173 168 165 165 165 163 160 159 159 157 157 160 161 160 159 159 159 159 159 160 159 158 158 159 158 158 159 159 160 163 167 173 182 192 200